DW0457 Little Compton RI US current weather conditions

sailwx.info

Wind from 210 at 4 knots gusting 11

Air temperature 11.7° C
Dewpoint 11.2° C

Last reported at 2019-Dec-09 23:01 UTC.
Time now 2019-Dec-09 23:38 UTC

Location: N 41°32' W 071°11'.
View on Google Maps.

See reports from other nearby stations

  
Tides and Currents Weather Stations Pressure Air Temp Water Temp Dewpoint Dewpoint Depression Visibility Wind Speed Wind Dir Waves Ship Positions
date/time (UTC)wind fromknots sea level pressurealtimeterstation pressurevisibilityair tempwater tempwave heightnotes
2019-Dec-09 23:01 210 4 gusting 11 11.7
2019-Dec-09 22:31 224 7 gusting 19 11.7
2019-Dec-09 22:01 174 10 gusting 21 12.8
2019-Dec-09 21:31 205 12 gusting 19 12.8
2019-Dec-09 21:01 213 6 gusting 17 12.2
2019-Dec-09 20:31 205 11 gusting 18 12.2
2019-Dec-09 20:01 231 7 gusting 19 11.7
2019-Dec-09 19:31 216 11 gusting 13 11.1
2019-Dec-09 19:01 167 8 gusting 13 12.2
2019-Dec-09 18:31 213 8 gusting 15 12.2
2019-Dec-09 18:01 183 6 gusting 16 12.2
2019-Dec-09 17:01 169 9 gusting 17 11.7
2019-Dec-09 16:31 169 4 gusting 13 11.7
2019-Dec-09 16:01 163 5 gusting 13 11.1
2019-Dec-09 15:31 146 4 gusting 12 11.1
2019-Dec-09 15:01 212 6 gusting 14 10.6
2019-Dec-09 14:31 169 5 gusting 12 10.6
2019-Dec-09 14:01 153 5 gusting 11 11.1
2019-Dec-09 13:31 207 4 gusting 11 11.1
2019-Dec-09 13:01 209 3 gusting 13 10.0
2019-Dec-09 12:31 209 5 gusting 10 10.0
2019-Dec-09 12:01 226 2 gusting 7 10.0
2019-Dec-09 11:31 186 4 gusting 9 10.0
2019-Dec-09 11:01 247 6 gusting 9 10.0
2019-Dec-09 10:31 205 1 gusting 6 9.4
2019-Dec-09 09:31 188 2 gusting 6 9.4
2019-Dec-09 09:01 196 1 gusting 7 8.9
2019-Dec-09 08:31 242 6 gusting 10 8.9
2019-Dec-09 08:01 211 2 gusting 13 8.9
2019-Dec-09 07:31 223 8 gusting 10 8.3
2019-Dec-09 07:01 226 4 gusting 10 8.3
2019-Dec-09 06:31 190 6 gusting 12 7.8
2019-Dec-09 06:01 212 4 gusting 11 7.8
2019-Dec-09 05:31 257 5 gusting 14 7.8
2019-Dec-09 05:01 175 3 gusting 15 7.2
2019-Dec-09 04:31 233 4 gusting 13 7.2
2019-Dec-09 04:01 166 5 gusting 13 7.2
2019-Dec-09 03:31 237 6 gusting 13 6.7
2019-Dec-09 03:01 255 3 gusting 14 6.7
2019-Dec-09 02:31 233 11 gusting 14 6.7
2019-Dec-09 02:01 248 8 gusting 15 6.1
2019-Dec-09 01:31 231 6 gusting 12 6.1
2019-Dec-09 01:01 221 10 gusting 13 5.6
2019-Dec-09 00:31 244 3 gusting 13 5.6
2019-Dec-09 00:01 255 1 gusting 15 5.0
2019-Dec-08 23:31 230 6 gusting 15 4.4
2019-Dec-08 23:01 195 3 gusting 14 4.4
2019-Dec-08 22:31 226 5 gusting 13 4.4
2019-Dec-08 22:01 217 6 gusting 14 3.9
2019-Dec-08 21:31 205 5 gusting 11 3.3
2019-Dec-08 21:01 231 5 gusting 13 3.3
2019-Dec-08 20:31 212 4 gusting 11 2.8
2019-Dec-08 20:01 241 6 gusting 11 2.8
2019-Dec-08 19:31 230 2 gusting 12 2.8
2019-Dec-08 19:01 248 3 gusting 10 2.8
2019-Dec-08 18:31 229 2 gusting 8 2.8
2019-Dec-08 18:01 270 3 gusting 11 2.8
2019-Dec-08 17:31 193 3 gusting 9 2.2
2019-Dec-08 17:01 209 5 gusting 9 1.7
2019-Dec-08 16:31 227 1 gusting 8 1.1
2019-Dec-08 16:01 115 3 gusting 10 0.6
2019-Dec-08 15:31 111 3 gusting 6 -0.0
2019-Dec-08 15:01 217 1 gusting 5 -1.1
2019-Dec-08 14:31 206 1 gusting 2 -0.6
2019-Dec-08 14:01 120 -1.1
2019-Dec-08 13:31 004 -3.3
2019-Dec-08 13:01 333 -4.4
2019-Dec-08 12:31 332 -6.7
2019-Dec-08 12:01 333 -7.8
2019-Dec-08 11:31 332 -7.8
2019-Dec-08 11:01 332 -7.8
2019-Dec-08 10:31 332 -7.2
2019-Dec-08 09:31 330 -7.2
2019-Dec-08 09:01 347 -7.2
2019-Dec-08 08:31 347 -6.7
2019-Dec-08 08:01 347 -6.7
2019-Dec-08 07:31 347 -5.6
2019-Dec-08 07:01 309 0 gusting 3 -4.4
2019-Dec-08 06:31 316 0 gusting 2 -3.9
2019-Dec-08 06:02 312 0 gusting 3 -3.9
2019-Dec-08 05:31 322 0 gusting 5 -3.3
2019-Dec-08 05:02 312 0 gusting 2 -3.9
2019-Dec-08 04:32 341 -4.4
2019-Dec-08 04:02 352 -3.9
2019-Dec-08 03:31 319 0 gusting 6 -2.8
2019-Dec-08 03:02 330 1 gusting 6 -2.8
2019-Dec-08 02:32 337 1 gusting 5 -2.8
2019-Dec-08 02:02 310 1 gusting 4 -2.2
2019-Dec-08 01:31 331 -2.2
2019-Dec-08 01:02 345 3 gusting 9 -1.7
2019-Dec-08 00:32 342 4 gusting 8 -1.7
2019-Dec-08 00:02 309 1 gusting 6 -1.1
2019-Dec-07 23:32 301 4 gusting 8 -1.1
2019-Dec-07 23:02 299 1 gusting 6 -1.1